Flag for US Virgin Islands Weather past 2 weeks in Charlotte Amalie, US Virgin Islands

Now
82 °F

Overcast.


Feels Like: 87 °F
Forecast: 80 / 86 °F
Wind: 15 mph from East

Location: Cyril E. King International Airport

Current Time: Jul 4, 2015 at 3:32:32 AM

Latest Report: Jul 4, 2015 at 2:53 AM


Visibility: 10 mi

Pressure: 30.03 "Hg

Humidity: 74%

Dew point: 73 °F

Location of Charlotte AmalieLocation

Historic Weather in Charlotte Amalie — Graph

°F

Charlotte Amalie temperature yesterday

Maximum temperature yesterday: 90 °F (at 9:53 AM)
Minimum temperature yesterday: 81 °F (at 12:53 AM)
Average temperature yesterday: 84 °F

Past Weeks' High & Low Weather Summary

 TemperatureHumidityPressure
High92 °F (Jun 29, 11:15 AM)96% (Jun 22, 1:53 PM)30.16 "Hg (Jun 22, 1:53 PM)
Low78 °F (Jun 21, 3:12 AM)39% (Jun 25, 2:38 PM)30.01 "Hg (Jul 3, 3:53 PM)
Average84 °F70%30.09 "Hg
* Reported Jun 19 1:53 AM — Jul 4 1:53 AM, Charlotte Amalie, Weather by CustomWeather, © 2015

Note: Actual official high and low records may vary slightly from our data, if they occured in-between our weather recording intervals... More about our weather records

Advertising

Charlotte Amalie weather history for previous 24 hours

 ConditionsComfort  
Time TempWeatherWind HumidityBarometerVisibility
1:53 AM
Sat, Jul 4
82 °FMostly cloudy.14 mph74%30.05 "Hg10 mi
1:09 AM83 °FMostly cloudy.17 mph74%30.06 "Hg10 mi
12:53 AM82 °FMostly cloudy.13 mph74%30.06 "Hg10 mi
12:29 AM82 °FMostly cloudy.13 mph74%30.06 "Hg10 mi
11:53 PM
Fri, Jul 3
83 °FOvercast.13 mph72%30.07 "Hg10 mi
11:20 PM83 °FMostly cloudy.13 mph72%30.07 "Hg10 mi
10:53 PM83 °FOvercast.13 mph72%30.07 "Hg10 mi
9:53 PM83 °FOvercast.8 mph72%30.08 "Hg10 mi
9:34 PM83 °FMostly cloudy.15 mph70%30.07 "Hg10 mi
9:11 PM83 °FOvercast.10 mph70%30.07 "Hg10 mi
8:53 PM83 °FOvercast.15 mph70%30.06 "Hg10 mi
7:53 PM83 °FMostly cloudy.16 mph70%30.05 "Hg10 mi
6:53 PM84 °FOvercast.20 mph67%30.03 "Hg10 mi
6:00 PM85 °FOvercast.18 mph65%30.02 "Hg10 mi
4:53 PM87 °FScattered clouds.17 mph61%30.01 "Hg10 mi
3:53 PM87 °FMostly cloudy.20 mph61%30.01 "Hg10 mi
2:53 PM87 °FOvercast.20 mph61%30.03 "Hg10 mi
1:53 PM88 °FMostly cloudy.20 mph59%30.03 "Hg10 mi
12:53 PM88 °FMostly cloudy.15 mph59%30.06 "Hg10 mi
11:53 AM89 °FMore clouds than sun.20 mph57%30.08 "Hg10 mi
10:53 AM90 °FMore clouds than sun.21 mph54%30.09 "Hg10 mi
9:53 AM90 °FMostly cloudy.14 mph52%30.09 "Hg10 mi
8:53 AM88 °FOvercast.17 mph52%30.08 "Hg10 mi
8:28 AM87 °FOvercast.14 mph55%30.08 "Hg10 mi
8:00 AM86 °FOvercast.17 mph59%30.08 "Hg10 mi
7:53 AM85 °FPassing clouds.18 mph63%30.08 "Hg10 mi
6:53 AM83 °FOvercast.12 mph70%30.06 "Hg10 mi
6:03 AM82 °FMostly cloudy.10 mph72%30.06 "Hg10 mi
5:53 AM82 °FMostly cloudy.12 mph74%30.06 "Hg10 mi
4:53 AM81 °FMostly cloudy.12 mph77%30.05 "Hg10 mi
4:01 AM82 °FMostly cloudy.9 mph74%30.04 "Hg10 mi
3:36 AM82 °FMostly cloudy.13 mph74%30.04 "Hg10 mi
3:21 AM82 °FMostly cloudy.9 mph77%30.04 "Hg10 mi
Weather by CustomWeather, © 2015

See weather overviewHow to use our weather pages